Regional Weather Roundup
Issued by NWS Northern Indiana

Home | Current Version | Previous Version | Text Only | Print | Product List | Glossary Off
Versions: 1 2 3 4 5 6 7 8 9 10 11 12 13 14 15 16 17 18 19 20 21 22 23 24 25 26 27 28 29 30 31 32 33 34 35 36 37 38 39 40 41 42 43 44 45 46 47 48 49 50

000
ASUS43 KIWX 022310
RWRIWX

KIWX WEATHER ROUNDUP
NATIONAL WEATHER SERVICE NORTHERN INDIANA
700 PM EDT MON MAY 02 2016

NOTE: "FAIR" INDICATES FEW OR NO CLOUDS BELOW 12,000 FEET WITH NO
SIGNIFICANT WEATHER AND/OR OBSTRUCTIONS TO VISIBILITY.

* THESE STATIONS ARE NOT UNDER NWS QUALITY CONTROL. THEY ALSO MAY NOT
  REPORT WEATHER SUCH AS PRECIPITATION OR FOG.

INZ001>027-030000-
NORTHERN INDIANA

CITY           SKY/WX    TMP DP  RH WIND       PRES   REMARKS
GARY*          PTSUNNY   50  43  76 N10       30.03S
VALPARAISO     CLOUDY    49  39  68 N8        30.01S
MICHIGAN CITY* CLOUDY    46  39  76 N3        30.02S
LAPORTE*       CLOUDY    51  42  71 N9        30.01S
KNOX*          CLOUDY    50  37  62 N7        30.00S
SOUTH BEND     CLOUDY    52  44  74 NE7       30.01S
ELKHART*       CLOUDY    52  48  87 NE7       30.01R
GOSHEN         CLOUDY    50  46  86 NE7       30.00R
MONTICELLO*    CLOUDY    52  46  78 N7        29.98S
LOGANSPORT*    CLOUDY    50  46  87 NE3       29.99S
ROCHESTER*     CLOUDY    52  50  93 NE7       30.00S FOG
WARSAW*        CLOUDY    50  45  81 NE5       30.00R
ANGOLA*        CLOUDY    48  39  71 NE3       29.99S
FORT WAYNE     CLOUDY    52  47  83 NE5       29.99S
HUNTINGTON*    DRIZZLE  N/A N/A N/A NE3       29.98S
PERU/GRISSOM   CLOUDY    51  51 100 N9        29.96F FOG
MARION*        CLOUDY    51  49  92 N8        29.98S

$$
INZ028>050-030000-
CENTRAL INDIANA

CITY           SKY/WX    TMP DP  RH WIND       PRES   REMARKS
LAFAYETTE      CLOUDY    52  47  83 N3        29.99R
KOKOMO*        CLOUDY    52  46  82 NE10      29.97S
MUNCIE*        CLOUDY    55  49  80 NE9       29.96R
INDIANAPOLIS   CLOUDY    56  49  77 NW8       29.94F

$$
MIZ043>046-050>051-056>058-064>065-071>073-077>080-030000-
SOUTHWEST LOWER MICHIGAN

CITY           SKY/WX    TMP DP  RH WIND       PRES   REMARKS
BATTLE CREEK   CLOUDY    52  43  71 NE7       30.00F
BENTON HARBOR  CLOUDY    50  36  58 N3        30.01F
COLDWATER*     CLOUDY    50  47  90 NE6       29.99F
HILLSDALE*     CLOUDY    50  44  81 NE8       29.98F
HOLLAND        MOSUNNY   56  41  57 W6        30.01F
GRAND RAPIDS   PTSUNNY   56  42  59 E6        30.01S
KALAMAZOO      CLOUDY    54  42  64 NE3       30.01S
STURGIS*       CLOUDY    50  46  85 NE7       29.99S
THREE RIVERS*  CLOUDY    52  46  78 CALM      30.01S

$$
OHZ001>008-015>018-024>025-030000-
NORTHWEST OHIO

CITY           SKY/WX    TMP DP  RH WIND       PRES   REMARKS
WAUSEON*         N/A     52 N/A N/A NE7       29.99S
DEFIANCE       CLOUDY    51  47  86 NE8       29.99R
FINDLAY        CLOUDY    53  44  71 NE12      29.97R
TOLEDO EXPRESS CLOUDY    52  45  77 N9        29.98S
TOLEDO METCALF CLOUDY    53  44  71 NE5       30.00S
LIMA           CLOUDY    52  48  86 NE8       29.96S

$$
AND FOR LAKE MICHIGAN COASTAL AND OPEN LAKE BUOY OBSERVATIONS

STATION/POSITION TEMP    WIND        PRES    VSBY  WAVE
                 AIR SEA DIR/SP/G                  HT/PER
                 (F)     (DEG/KT/KT) (MB)    (MI)  (FT/S)
CALUMET HARBOR    48                 1016.2F
MICHIGAN CITY     45      20/  8/  9   N/A
BURNS HARBOR      46      50/  8/ 11 1017.3S
SAINT JOSEPH      47     360/  6/  8 1017.3S
SOUTH LAKE BUOY   42 42  340/  4/  4 1016.8F         1/ 4
4 MI NW BRIDGMAN  46 48                N/A           2/ 3

$$
&&



USA.gov is the U.S. government's official web portal to all federal, state and local government web resources and services.